EN

Hourly Weather Aberfoyle

Today, 28 February, Sunday

Time Temperature Precipitation Wind Pressure Humidity
00:00 +5°C° 0 mm 1 mps 755 mmHg 97%
01:00 +5°C° 0 mm 1 mps 754 mmHg 96%
02:00 +5°C° 0 mm 1 mps 754 mmHg 96%
03:00 +6°C° 0 mm 1 mps 754 mmHg 96%
04:00 +6°C° 0 mm 1 mps 754 mmHg 96%
05:00 +6°C° 0 mm 1 mps 754 mmHg 96%
06:00 +5°C° 0 mm 1 mps 754 mmHg 96%
07:00 +6°C° 0 mm 1 mps 753 mmHg 95%
08:00 +6°C° 0 mm 1 mps 753 mmHg 95%
09:00 +6°C° 0 mm 1 mps 753 mmHg 94%
10:00 +7°C° 0.1 mm 1 mps 754 mmHg 90%
11:00 +8°C° 0.1 mm 1 mps 754 mmHg 85%
12:00 +9°C° 0.1 mm 1 mps 754 mmHg 81%
13:00 +9°C° 0 mm 1 mps 753 mmHg 78%
14:00 +9°C° 0 mm 1 mps 753 mmHg 75%
15:00 +9°C° 0 mm 2 mps 753 mmHg 72%
16:00 +9°C° 0 mm 1 mps 752 mmHg 77%
17:00 +7°C° 0 mm 1 mps 752 mmHg 82%
18:00 +5°C° 0 mm 0 mps 752 mmHg 87%
19:00 +5°C° 0 mm 0 mps 752 mmHg 88%
20:00 +4°C° 0 mm 0 mps 752 mmHg 89%
21:00 +4°C° 0 mm 0 mps 752 mmHg 91%
22:00 +3°C° 0 mm 0 mps 752 mmHg 90%
23:00 +3°C° 0 mm 0 mps 752 mmHg 90%

Tomorrow, 1 March, Monday

Time Temperature Precipitation Wind Pressure Humidity
00:00 +3°C° 0 mm 0 mps 752 mmHg 90%
01:00 +2°C° 0 mm 0 mps 752 mmHg 90%
02:00 +2°C° 0 mm 0 mps 751 mmHg 90%
03:00 +2°C° 0 mm 0 mps 751 mmHg 90%
04:00 +2°C° 0 mm 0 mps 751 mmHg 90%
05:00 +2°C° 0 mm 0 mps 751 mmHg 90%
06:00 +2°C° 0 mm 0 mps 751 mmHg 90%
07:00 +2°C° 0 mm 0 mps 751 mmHg 88%
08:00 +3°C° 0 mm 0 mps 751 mmHg 86%
09:00 +4°C° 0 mm 0 mps 751 mmHg 84%
10:00 +5°C° 0 mm 0 mps 751 mmHg 79%
11:00 +8°C° 0 mm 1 mps 751 mmHg 74%
12:00 +9°C° 0 mm 1 mps 751 mmHg 69%
13:00 +9°C° 0 mm 1 mps 751 mmHg 67%
14:00 +9°C° 0 mm 1 mps 750 mmHg 65%
15:00 +10°C° 0 mm 1 mps 750 mmHg 64%
16:00 +8°C° 0 mm 1 mps 750 mmHg 70%
17:00 +7°C° 0 mm 1 mps 749 mmHg 77%
18:00 +5°C° 0 mm 1 mps 749 mmHg 83%
19:00 +5°C° 0 mm 1 mps 749 mmHg 85%
20:00 +4°C° 0 mm 1 mps 749 mmHg 87%
21:00 +4°C° 0 mm 1 mps 749 mmHg 88%
22:00 +3°C° 0 mm 1 mps 749 mmHg 89%
23:00 +3°C° 0 mm 1 mps 749 mmHg 89%

Day after tomorrow, 2 March, Tuesday

Time Temperature Precipitation Wind Pressure Humidity
00:00 +3°C° 0 mm 1 mps 749 mmHg 90%
01:00 +3°C° 0 mm 1 mps 749 mmHg 90%
02:00 +2°C° 0 mm 1 mps 749 mmHg 90%
03:00 +1°C° 0 mm 0 mps 748 mmHg 90%
04:00 +2°C° 0 mm 1 mps 748 mmHg 89%
05:00 +2°C° 0 mm 1 mps 748 mmHg 89%
06:00 +2°C° 0 mm 1 mps 748 mmHg 89%
07:00 +3°C° 0 mm 1 mps 748 mmHg 86%
08:00 +4°C° 0 mm 1 mps 748 mmHg 82%
09:00 +5°C° 0 mm 1 mps 748 mmHg 79%
10:00 +6°C° 0 mm 1 mps 748 mmHg 74%
11:00 +8°C° 0 mm 1 mps 748 mmHg 69%
12:00 +9°C° 0 mm 1 mps 749 mmHg 63%
13:00 +9°C° 0 mm 1 mps 748 mmHg 62%
14:00 +10°C° 0 mm 1 mps 748 mmHg 61%
15:00 +10°C° 0 mm 1 mps 748 mmHg 60%
16:00 +8°C° 0 mm 1 mps 748 mmHg 67%
17:00 +7°C° 0 mm 1 mps 747 mmHg 75%
18:00 +4°C° 0 mm 0 mps 747 mmHg 82%
19:00 +4°C° 0 mm 0 mps 747 mmHg 84%
20:00 +3°C° 0 mm 0 mps 747 mmHg 85%
21:00 +3°C° 0 mm 0 mps 747 mmHg 86%
22:00 +2°C° 0 mm 0 mps 747 mmHg 86%
23:00 +2°C° 0 mm 0 mps 747 mmHg 86%

3 March, Wednesday

Time Temperature Precipitation Wind Pressure Humidity
00:00 +2°C° 0 mm 0 mps 747 mmHg 87%
01:00 +1°C° 0 mm 0 mps 747 mmHg 86%
02:00 +1°C° 0 mm 0 mps 747 mmHg 86%
03:00 +1°C° 0 mm 0 mps 747 mmHg 86%
04:00 +1°C° 0 mm 0 mps 747 mmHg 85%
05:00 +1°C° 0 mm 0 mps 747 mmHg 85%
06:00 +1°C° 0 mm 0 mps 746 mmHg 84%
07:00 +2°C° 0 mm 0 mps 747 mmHg 80%
08:00 +3°C° 0 mm 0 mps 747 mmHg 76%
09:00 +4°C° 0 mm 0 mps 747 mmHg 73%
10:00 +5°C° 0 mm 0 mps 747 mmHg 67%
11:00 +7°C° 0 mm 0 mps 747 mmHg 62%
12:00 +8°C° 0 mm 0 mps 747 mmHg 56%
13:00 +9°C° 0 mm 0 mps 746 mmHg 55%
14:00 +9°C° 0 mm 0 mps 746 mmHg 54%
15:00 +9°C° 0 mm 0 mps 746 mmHg 53%
16:00 +7°C° 0 mm 0 mps 746 mmHg 61%
17:00 +6°C° 0 mm 0 mps 745 mmHg 69%
18:00 +4°C° 0 mm 0 mps 745 mmHg 77%
19:00 +3°C° 0 mm 0 mps 745 mmHg 79%
20:00 +3°C° 0 mm 0 mps 745 mmHg 80%
21:00 +2°C° 0 mm 0 mps 745 mmHg 82%
22:00 +2°C° 0 mm 0 mps 745 mmHg 83%
23:00 +2°C° 0 mm 1 mps 745 mmHg 84%

4 March, Thursday

Time Temperature Precipitation Wind Pressure Humidity
00:00 +2°C° 0 mm 1 mps 745 mmHg 85%
01:00 +2°C° 0 mm 1 mps 744 mmHg 86%
02:00 +2°C° 0 mm 1 mps 744 mmHg 87%
03:00 +1°C° 0 mm 1 mps 744 mmHg 88%
04:00 +1°C° 0 mm 1 mps 744 mmHg 89%
05:00 +1°C° 0 mm 1 mps 744 mmHg 89%
06:00 +1°C° 0 mm 1 mps 743 mmHg 90%
07:00 +2°C° 0 mm 1 mps 744 mmHg 87%
08:00 +3°C° 0 mm 1 mps 744 mmHg 83%
09:00 +4°C° 0 mm 1 mps 745 mmHg 80%
10:00 +3°C° 0.1 mm 2 mps 745 mmHg 81%
11:00 +4°C° 0.1 mm 2 mps 745 mmHg 83%
12:00 +3°C° 0.1 mm 3 mps 746 mmHg 84%
13:00 +3°C° 0.1 mm 3 mps 746 mmHg 82%
14:00 +2°C° 0.1 mm 3 mps 746 mmHg 81%
15:00 +2°C° 0.1 mm 3 mps 746 mmHg 79%
16:00 +2°C° 0 mm 3 mps 746 mmHg 78%
17:00 +1°C° 0 mm 3 mps 746 mmHg 78%
18:00 0°C° 0 mm 3 mps 746 mmHg 77%
19:00 0°C° 0 mm 3 mps 746 mmHg 79%
20:00 -1°C° 0 mm 2 mps 747 mmHg 80%
21:00 -2°C° 0 mm 2 mps 747 mmHg 81%
22:00 -2°C° 0 mm 2 mps 747 mmHg 82%
23:00 -2°C° 0 mm 2 mps 747 mmHg 82%

5 March, Friday

Time Temperature Precipitation Wind Pressure Humidity
00:00 -3°C° 0 mm 2 mps 747 mmHg 83%
01:00 -1°C° 0 mm 1 mps 747 mmHg 84%
02:00 -1°C° 0 mm 1 mps 747 mmHg 86%
03:00 0°C° 0 mm 1 mps 747 mmHg 87%
04:00 0°C° 0 mm 1 mps 747 mmHg 87%
05:00 0°C° 0 mm 1 mps 747 mmHg 88%
06:00 0°C° 0 mm 1 mps 747 mmHg 88%
07:00 -1°C° 0 mm 2 mps 747 mmHg 82%
08:00 -1°C° 0 mm 2 mps 747 mmHg 76%
09:00 0°C° 0 mm 3 mps 747 mmHg 71%
10:00 +1°C° 0 mm 3 mps 747 mmHg 68%
11:00 +1°C° 0 mm 3 mps 747 mmHg 65%
12:00 +1°C° 0 mm 4 mps 747 mmHg 62%
13:00 +2°C° 0 mm 3 mps 747 mmHg 61%
14:00 +2°C° 0 mm 3 mps 747 mmHg 59%
15:00 +3°C° 0 mm 3 mps 747 mmHg 58%
16:00 +2°C° 0 mm 3 mps 747 mmHg 63%
17:00 +2°C° 0 mm 2 mps 747 mmHg 68%
18:00 +1°C° 0 mm 2 mps 746 mmHg 73%
19:00 +2°C° 0 mm 1 mps 747 mmHg 76%
20:00 +1°C° 0 mm 1 mps 747 mmHg 80%
21:00 0°C° 0 mm 1 mps 747 mmHg 84%
22:00 0°C° 0 mm 1 mps 747 mmHg 85%
23:00 0°C° 0 mm 1 mps 747 mmHg 86%
Show more